Regional Weather Roundup
Issued by NWS Sioux Falls, SD

Home | Current Version | Previous Version | Graphics & Text | Print | Product List | Glossary Off
Versions: 1 2 3 4 5 6 7 8 9 10 11 12 13 14 15 16 17 18 19 20 21 22 23 24 25 26 27 28 29 30 31 32 33 34 35 36 37 38 39 40 41 42 43 44 45 46 47 48 49 50

000
ASUS43 KFSD 211702
RWRFSD

WEATHER ROUNDUP FOR SE SOUTH DAKOTA/SW MINNESOTA/NW IOWA
NATIONAL WEATHER SERVICE SIOUX FALLS SD
1200 PM CDT SAT APR 21 2018

NOTE: "FAIR" INDICATES FEW OR NO CLOUDS BELOW 12,000 FEET WITH NO
SIGNIFICANT WEATHER AND OR OBSTRUCTIONS TO VISIBILITY.


SDZ038>040-050-052>070-211800-
SOUTHEAST SOUTH DAKOTA

CITY           SKY/WX    TMP DP  RH WIND       PRES   REMARKS
BROOKINGS      CLOUDY    48  34  58 SE8       30.36S
CHAMBERLAIN    CLOUDY    46  43  90 N3        30.31F
HURON          CLOUDY    43  33  68 S8        30.35S
MADISON        PTSUNNY   41  41 100 SE6       30.36R
MITCHELL       CLOUDY    44  35  70 E3        30.35S
SIOUX FALLS    CLOUDY    45  33  63 E10       30.34F
WINNER         CLOUDY    42  39  89 E5        30.31S FOG
YANKTON        CLOUDY    47  34  60 E8        30.32F
$$

MNZ071-072-080-081-089-090-097-098-211800-
SOUTHWEST MINNESOTA

CITY           SKY/WX    TMP DP  RH WIND       PRES   REMARKS
FAIRMONT       CLOUDY    40  28  62 E5        30.39F
JACKSON        CLOUDY    37  32  81 NE3       30.38S
LUVERNE        CLOUDY    45  34  65 SE6       30.37R
MARSHALL       CLOUDY    44  31  60 S6        30.39
MONTEVIDEO     MOSUNNY   52  34  50 S7        30.39F
PIPESTONE      CLOUDY   N/A N/A N/A SE6       30.36S
REDWOOD FALLS  CLOUDY    47  30  51 E8        30.39F
TRACY          CLOUDY    43  35  73 CALM      30.38F
WINDOM         CLOUDY    43  23  45 NE6       30.38S
WORTHINGTON    CLOUDY    41  33  73 NE3       30.38S
$$

IAZ001>003-012>014-020>022-031-032-NEZ013-014-SDZ071-211800-
NORTHWEST IOWA

CITY           SKY/WX    TMP DP  RH WIND       PRES   REMARKS
CHEROKEE       CLOUDY    43  34  69 NE5       30.35F
DENISON        CLOUDY    52  28  40 E14       30.32S
ESTHERVILLE    CLOUDY    37  31  78 NE5       30.37F
LE MARS        CLOUDY    46  36  66 NE7       30.34S
ORANGE CITY    CLOUDY    48  36  61 E9        30.35F
SHELDON        CLOUDY    48  34  57 E10       30.34S
SIOUX CITY     CLOUDY    47  32  56 E8        30.33R
SPENCER        CLOUDY    44  32  62 E9        30.37R
STORM LAKE     CLOUDY    43  36  75 NE12      30.34S
$$

ABBREVIATIONS USED IN REMARKS
   TC - TEMPERATURE IN CELSIUS
  WCI - WIND CHILL INDEX
   HX - HEAT INDEX
  VSB - VISIBILITY




USA.gov is the U.S. government's official web portal to all federal, state and local government web resources and services.